Showing default

HEALTHSAT 1, 22827

Orbit data source: Space-Track

HEALTHSAT 1, 22827 is a payload satellite owned by AMSAT-I (US) in SSO that was launched on Sun, 26 Sep 1993 UTC via an ARIANE 40 launch vehicle from the French Guiana (FRGUI). Payload-class satellites include a variety of spacecraft equipped with specific instruments for various scientific and technological missions. These include communications satellites like Starlink; space stations such as the ISS; scientific satellites like the Hubble; Earth observation satellites from companies like Planet Labs, Umbra, and HawkEye 360; GPS; miniature CubeSats for education and research; and military/defense satellites.

Loading next visibility...
Identifier
22827, 1993-061E
Orbit
SSO
Country
Flag of USUS
Related business
Manufacturer
AMSAT-I
Mission
Non-operational Amateur Communications
Bus & Motor
MICROSAT, Unknown motor
Mass
12 kg wet, 12 kg dry
Launch date (UTC)
1993-09-26 (33 years ago)
Launch vehicle
ARIANE 40
Launch site
French Guiana (FRGUI)
Object type
Payload
Rocket body
Debris
Shape & HBR
Box, 0.1 m
Radar Cross Section
0.135 m², Medium (>0.1 m² and < 1m²)

Expand to show TLE details & history
Last TLE update: 10 hours ago

TLE from 10 hours ago
0 HEALTHSAT 1
1 22827U 93061E   26095.20157015  .00000257  00000-0  11135-3 0  9991
2 22827  98.6457 163.8415 0007885 237.9646 186.9020 14.32518611697645
Epoch: 2026-04-05T04:50Z
TLE epoch observation values (Epoch: 2026-04-05T04:50:15.660Z)
Latitude
63.59429°
Longitude
-119.96846°
Altitude
799.845 km
Speed
7.457 km/s
True Right ascension
09h 44m 25s
True Declination
63° 27' 28"
Sunlit
Object was in daylight at epoch
Visualization orbit readout
Latitude
Unknown
Longitude
Unknown
Altitude
Unknown
Speed
Unknown
Apparent Right ascension
Unknown
Apparent Declination
Unknown
Sunlit
N/A
Visualization observer readout
Local Sidereal Time
21:11:50
Azimuth
Unknown
Elevation
Unknown
Doppler factor
Unknown
Orbital elements
Apogee altitude
786.108 km
Perigee altitude
774.819 km
Semi-major axis
7,158.6 km
Eccentricity
0.00079
Inclination
98.6457°
RAAN
163.8415°
Arg. of periapsis
237.9646°
True anomaly
186.89115°
Mean anomaly
186.902°
Eccentric anomaly
186.89658°
Mean motion
3.58345 °/min
Orbital period
100.46 mins
BSTAR
0.00011135
Loading maneuver chart data...
Computing Atmospheric mass density...
Loading historical data...
Loading historical data...
Loading historical data...
Loading historical data...
Loading historical data...
Loading historical data...
Loading historical data...

Documentation

Showing up to 5 results
|